Find Starlink 3807

NORAD ID: 52353 Int'l Des: 2022-045 Owner: SPXS Country: US Constellation: starlink operational
LEOCIRCULAR

現在のビュー

3D地球を読み込み中...

About Starlink 3807

Starlink 3807 (NORAD 52353) is a starlink constellation satellite (v1.5) launched Apr 29, 2022 by SPXS of US. It operates in LEO, CIRCULAR orbit with a mass of 297.00 kg.

Starlink 3807について

説明を読み込み中...

次回通過

Passes for default location (London). Set your location on the main map for personalized predictions.

高度履歴

Loading altitude history...

軌道要素

1 52353U 22045Y 26171.23195357 .00032516 00000-0 20365-2 0 9998
2 52353 53.1601 98.6750 0002603 143.9251 216.1917 15.09110190231265
Epoch: Jun 20, 2026 • Age: 8 hours

現在のステータス

高度 544.3 km
速度 7.60 km/s
衛星直下点 51.42°N, 49.57°E
打ち上げ日 Apr 29, 2022
運用期間 4.1 years
タイプ internet

技術仕様

分類 Payload
質量 297.00 kg
乾燥質量 275.00 kg
総質量 297.00 kg
長さ 0.20 m
直径 2.80 m
スパン 9.00 m
形状 Box + pan
製造者 SPXS
バスタイプ Starlink
フェーズステータス In Orbit
所有者/国 SPXS/US

Most Searched